Time,TemperatureF,DewpointF,PressureIn,WindDirection,WindDirectionDegrees,WindSpeedMPH,WindSpeedGustMPH,Humidity,HourlyPrecipIn,Conditions,Clouds,dailyrainin,SoftwareType,DateUTC
2013-05-17 00:00:00,71.0,50.0,-100.00,North,-999,-999.0,-999.0,48,0.00,,,0.00,,2013-05-17 07:00:00,
2013-05-17 00:53:00,71.0,50.0,-100.00,North,-999,-999.0,-999.0,48,0.00,,,0.00,,2013-05-17 07:53:00,
2013-05-17 01:00:00,70.0,50.0,-100.00,North,-999,-999.0,-999.0,49,0.00,,,0.00,,2013-05-17 08:00:00,
2013-05-17 01:52:00,70.0,50.0,-100.00,North,-999,-999.0,-999.0,49,0.00,,,0.00,,2013-05-17 08:52:00,
2013-05-17 02:00:00,70.0,53.0,-100.00,North,-999,-999.0,-999.0,55,0.00,,,0.00,,2013-05-17 09:00:00,
2013-05-17 02:53:00,70.0,53.0,-100.00,North,-999,-999.0,-999.0,55,0.00,,,0.00,,2013-05-17 09:53:00,
2013-05-17 03:00:00,69.0,52.0,-100.00,North,-999,-999.0,-999.0,55,-99.99,,,0.00,,2013-05-17 10:00:00,
2013-05-17 03:54:00,69.0,52.0,-100.00,North,-999,-999.0,-999.0,55,-99.99,,,0.00,,2013-05-17 10:54:00,
2013-05-17 04:00:00,68.0,52.0,-100.00,North,-999,-999.0,-999.0,57,0.00,,,0.00,,2013-05-17 11:00:00,
2013-05-17 04:53:00,68.0,52.0,-100.00,North,-999,-999.0,-999.0,57,0.00,,,0.00,,2013-05-17 11:53:00,
2013-05-17 05:00:00,69.0,51.0,-100.00,North,-999,-999.0,-999.0,53,0.00,,,0.00,,2013-05-17 12:00:00,
2013-05-17 05:53:00,69.0,51.0,-100.00,North,-999,-999.0,-999.0,53,0.00,,,0.00,,2013-05-17 12:53:00,
2013-05-17 06:00:00,70.0,50.0,-100.00,North,-999,-999.0,-999.0,50,0.00,,,0.00,,2013-05-17 13:00:00,
2013-05-17 06:52:00,70.0,50.0,-100.00,North,-999,-999.0,-999.0,50,0.00,,,0.00,,2013-05-17 13:52:00,
2013-05-17 07:00:00,68.0,49.0,-100.00,North,-999,-999.0,-999.0,51,0.00,,,0.00,,2013-05-17 14:00:00,
2013-05-17 07:53:00,68.0,49.0,-100.00,North,-999,-999.0,-999.0,51,0.00,,,0.00,,2013-05-17 14:53:00,
2013-05-17 08:00:00,66.0,49.0,-100.00,North,-999,-999.0,-999.0,54,0.00,,,0.00,,2013-05-17 15:00:00,
2013-05-17 08:57:00,66.0,49.0,-100.00,North,-999,-999.0,-999.0,54,0.00,,,0.00,,2013-05-17 15:57:00,
2013-05-17 09:00:00,65.0,50.0,-100.00,North,-999,-999.0,-999.0,58,0.00,,,0.00,,2013-05-17 16:00:00,
2013-05-17 09:56:00,65.0,50.0,-100.00,North,-999,-999.0,-999.0,58,0.00,,,0.00,,2013-05-17 16:56:00,
2013-05-17 10:00:00,69.0,49.0,-100.00,North,-999,-999.0,-999.0,50,0.00,,,0.00,,2013-05-17 17:00:00,
2013-05-17 11:00:00,70.0,48.0,-100.00,North,-999,-999.0,-999.0,46,0.00,,,0.00,,2013-05-17 18:00:00,
2013-05-17 12:00:00,75.0,47.0,-100.00,North,-999,-999.0,-999.0,37,0.00,,,0.00,,2013-05-17 19:00:00,
2013-05-17 13:00:00,78.0,46.0,-100.00,North,-999,-999.0,-999.0,33,0.00,,,0.00,,2013-05-17 20:00:00,
2013-05-17 13:58:00,78.0,46.0,-100.00,North,-999,-999.0,-999.0,33,0.00,,,0.00,,2013-05-17 20:58:00,
2013-05-17 14:00:00,81.0,43.0,-100.00,North,-999,-999.0,-999.0,26,0.00,,,0.00,,2013-05-17 21:00:00,
2013-05-17 14:58:00,81.0,43.0,-100.00,North,-999,-999.0,-999.0,26,0.00,,,0.00,,2013-05-17 21:58:00,
2013-05-17 15:00:00,83.0,44.0,-100.00,North,-999,-999.0,-999.0,26,0.00,,,0.00,,2013-05-17 22:00:00,
2013-05-17 15:55:00,83.0,44.0,-100.00,North,-999,-999.0,-999.0,26,0.00,,,0.00,,2013-05-17 22:55:00,
2013-05-17 17:00:00,83.0,42.0,-100.00,North,-999,-999.0,-999.0,24,-99.99,,,0.00,,2013-05-18 00:00:00,
2013-05-17 17:54:00,83.0,42.0,-100.00,North,-999,-999.0,-999.0,24,-99.99,,,0.00,,2013-05-18 00:54:00,
2013-05-17 18:00:00,82.0,39.0,-100.00,North,-999,-999.0,-999.0,22,0.00,,,0.00,,2013-05-18 01:00:00,
2013-05-17 18:52:00,82.0,39.0,-100.00,North,-999,-999.0,-999.0,22,0.00,,,0.00,,2013-05-18 01:52:00,
2013-05-17 19:00:00,80.0,40.0,-100.00,North,-999,-999.0,-999.0,24,0.00,,,0.00,,2013-05-18 02:00:00,
2013-05-17 19:53:00,80.0,40.0,-100.00,North,-999,-999.0,-999.0,24,0.00,,,0.00,,2013-05-18 02:53:00,
2013-05-17 20:00:00,78.0,41.0,-100.00,North,-999,-999.0,-999.0,27,0.00,,,0.00,,2013-05-18 03:00:00,
2013-05-17 20:53:00,78.0,41.0,-100.00,North,-999,-999.0,-999.0,27,0.00,,,0.00,,2013-05-18 03:53:00,
2013-05-17 21:00:00,76.0,41.0,-100.00,North,-999,-999.0,-999.0,28,0.00,,,0.00,,2013-05-18 04:00:00,
2013-05-17 21:52:00,76.0,41.0,-100.00,North,-999,-999.0,-999.0,28,0.00,,,0.00,,2013-05-18 04:52:00,
2013-05-17 22:00:00,74.0,41.0,-100.00,North,-999,-999.0,-999.0,31,0.00,,,-99.99,,2013-05-18 05:00:00,
2013-05-17 22:52:00,74.0,41.0,-100.00,North,-999,-999.0,-999.0,31,0.00,,,-99.99,,2013-05-18 05:52:00,
2013-05-17 23:00:00,74.0,40.0,-100.00,North,-999,-999.0,-999.0,30,0.00,,,0.00,,2013-05-18 06:00:00,
2013-05-17 23:52:00,74.0,40.0,-100.00,North,-999,-999.0,-999.0,30,0.00,,,0.00,,2013-05-18 06:52:00,